Weather in Awka

Nigeria     6°12′34″N   7°04′40″E
temp.,
°C
wind,
m/s
gust,
m/s
humid.,
%
clouds,
%
prec.,
mm/h
press.,
hPa
HPBL,
m
17 may, mon
mon1701:00+24ssw1290100 0.0 101275
04:00+25se1289100 0.0 101197
07:00+25sw1489100 0.0 1011182
10:00+27wsw2377100 0.0 1013642
13:00+30sw2365100 0.1 10111095
16:00+30sw116299 0.0 1009933
19:00+27sw2473100 0.0 101093
22:00+26sw2680100 0.0 1012230
18 may, tue
tue1801:00+25sw268699 0.0 1011281
04:00+25sw1588100 0.0 1010240
07:00+25ssw258891 0.0 1012227
10:00+30sw346434 0.0 1013958
13:00+33s3351100 0.0 10111805
16:00+32s445594 0.0 10091468
19:00+27s487891 0.7 1011366
22:00+26ssw38849 0.0 1013338
19 may, wed
wed1901:00+25ssw389192 0.0 1013423
04:00+24ssw279423 0.0 1011319
07:00+24s139199 0.0 1013164
10:00+30ssw346253 0.0 10141077
13:00+32ssw345573 0.0 10111381
16:00+33ssw2349100 0.0 10091622
19:00+28s487157 0.0 1011265
22:00+27ssw49779 0.1 1012487
20 may, thu
thu2001:00+25ssw2589100 0.1 1012258
04:00+24ssw259143 0.0 1011178
07:00+25ssw148666 0.0 1013214
10:00+30s346419 0.0 10141074
13:00+34s445120 0.0 10111772
16:00+34ssw224569 0.0 10081948
19:00+29sw3863100 0.0 1010342
22:00+28ssw37728 0.0 1012344
21 may, fri
fri2101:00+26sw378546 0.0 1012422
04:00+24sw259210 0.0 1011190
07:00+25sw139295 0.0 1013186
10:00+30sw236599 0.0 10141068
13:00+34ssw334946 0.0 10111730
16:00+34ssw324852 0.0 10091655
19:00+30ssw49620 0.0 1009357
22:00+27sw39775 0.0 1012486